Wetterdaten: Freitag, 26.02.2010
Datum Zeit Temp. A. Feuchte A. Luftdruck Regen Wind Richtung Richtung Sonnenschein UV Solar Windben
26.02.2010 00:00 7,5 C 86 % 989,6 hPa 0,0 mm 3,2 km/h (1 Bft) SO 135 0 min 0 UV-I 0 W/m 14,5 km/h (3 Bft)
26.02.2010 00:10 7,5 C 87 % 989,7 hPa 0,0 mm 3,2 km/h (1 Bft) SO 135 0 min 0 UV-I 0 W/m 16,1 km/h (3 Bft)
26.02.2010 00:20 7,6 C 87 % 989,5 hPa 0,0 mm 1,6 km/h (1 Bft) O 90 0 min 0 UV-I 0 W/m 9,7 km/h (2 Bft)
26.02.2010 00:30 7,6 C 87 % 989,6 hPa 0,0 mm 1,6 km/h (1 Bft) S-SO 157 0 min 0 UV-I 0 W/m 14,5 km/h (3 Bft)
26.02.2010 00:40 7,7 C 86 % 989,6 hPa 0,0 mm 1,6 km/h (1 Bft) W-SW 247 0 min 0 UV-I 0 W/m 11,3 km/h (2 Bft)
26.02.2010 00:50 7,7 C 86 % 989,6 hPa 0,0 mm 3,2 km/h (1 Bft) S-SW 202 0 min 0 UV-I 0 W/m 11,3 km/h (2 Bft)
26.02.2010 01:00 7,8 C 86 % 989,5 hPa 0,0 mm 4,8 km/h (1 Bft) SO 135 0 min 0 UV-I 0 W/m 14,5 km/h (3 Bft)
26.02.2010 01:10 7,8 C 86 % 989,5 hPa 0,0 mm 3,2 km/h (1 Bft) S-SO 157 0 min 0 UV-I 0 W/m 16,1 km/h (3 Bft)
26.02.2010 01:20 7,8 C 86 % 989,3 hPa 0,0 mm 1,6 km/h (1 Bft) SO 135 0 min 0 UV-I 0 W/m 9,7 km/h (2 Bft)
26.02.2010 01:30 7,8 C 86 % 989,2 hPa 0,0 mm 3,2 km/h (1 Bft) SO 135 0 min 0 UV-I 0 W/m 11,3 km/h (2 Bft)
26.02.2010 01:40 7,7 C 86 % 989,2 hPa 0,0 mm 3,2 km/h (1 Bft) S 180 0 min 0 UV-I 0 W/m 11,3 km/h (2 Bft)
26.02.2010 01:50 7,7 C 86 % 989,0 hPa 0,0 mm 3,2 km/h (1 Bft) S 180 0 min 0 UV-I 0 W/m 11,3 km/h (2 Bft)
26.02.2010 02:00 7,7 C 86 % 989,0 hPa 0,0 mm 1,6 km/h (1 Bft) S 180 0 min 0 UV-I 0 W/m 8,0 km/h (2 Bft)
26.02.2010 02:10 7,7 C 86 % 989,0 hPa 0,0 mm 3,2 km/h (1 Bft) SO 135 0 min 0 UV-I 0 W/m 14,5 km/h (3 Bft)
26.02.2010 02:20 7,6 C 86 % 988,8 hPa 0,0 mm 3,2 km/h (1 Bft) SO 135 0 min 0 UV-I 0 W/m 9,7 km/h (2 Bft)
26.02.2010 02:30 7,6 C 86 % 988,9 hPa 0,0 mm 1,6 km/h (1 Bft) SO 135 0 min 0 UV-I 0 W/m 9,7 km/h (2 Bft)
26.02.2010 02:40 7,5 C 87 % 988,8 hPa 0,0 mm 1,6 km/h (1 Bft) S-SO 157 0 min 0 UV-I 0 W/m 8,0 km/h (2 Bft)
26.02.2010 02:50 7,5 C 87 % 988,7 hPa 0,0 mm 1,6 km/h (1 Bft) SO 135 0 min 0 UV-I 0 W/m 9,7 km/h (2 Bft)
26.02.2010 03:00 7,4 C 87 % 988,5 hPa 0,0 mm 1,6 km/h (1 Bft) SO 135 0 min 0 UV-I 0 W/m 8,0 km/h (2 Bft)
26.02.2010 03:10 7,4 C 87 % 988,4 hPa 0,0 mm 1,6 km/h (1 Bft) S-SO 157 0 min 0 UV-I 0 W/m 8,0 km/h (2 Bft)
26.02.2010 03:20 7,4 C 87 % 988,3 hPa 0,0 mm 1,6 km/h (1 Bft) S-SO 157 0 min 0 UV-I 0 W/m 4,8 km/h (1 Bft)
26.02.2010 03:30 7,3 C 87 % 988,3 hPa 0,0 mm 1,6 km/h (1 Bft) SO 135 0 min 0 UV-I 0 W/m 4,8 km/h (1 Bft)
26.02.2010 03:40 7,2 C 87 % 988,0 hPa 0,0 mm 1,6 km/h (1 Bft) O-SO 112 0 min 0 UV-I 0 W/m 8,0 km/h (2 Bft)
26.02.2010 03:50 7,2 C 87 % 987,9 hPa 0,0 mm 1,6 km/h (1 Bft) S-SO 157 0 min 0 UV-I 0 W/m 6,4 km/h (2 Bft)
26.02.2010 04:00 7,1 C 88 % 987,9 hPa 0,0 mm 1,6 km/h (1 Bft) O-SO 112 0 min 0 UV-I 0 W/m 6,4 km/h (2 Bft)
26.02.2010 04:10 7,1 C 88 % 987,8 hPa 0,0 mm 3,2 km/h (1 Bft) O-SO 112 0 min 0 UV-I 0 W/m 11,3 km/h (2 Bft)
26.02.2010 04:20 7,1 C 88 % 987,6 hPa 0,0 mm 3,2 km/h (1 Bft) O-SO 112 0 min 0 UV-I 0 W/m 14,5 km/h (3 Bft)
26.02.2010 04:30 7,0 C 88 % 987,6 hPa 0,0 mm 1,6 km/h (1 Bft) S-SO 157 0 min 0 UV-I 0 W/m 6,4 km/h (2 Bft)
26.02.2010 04:40 7,0 C 88 % 987,6 hPa 0,0 mm 1,6 km/h (1 Bft) S-SO 157 0 min 0 UV-I 0 W/m 9,7 km/h (2 Bft)
26.02.2010 04:50 7,0 C 89 % 987,7 hPa 0,0 mm 1,6 km/h (1 Bft) O-SO 112 0 min 0 UV-I 0 W/m 6,4 km/h (2 Bft)
26.02.2010 05:00 7,1 C 89 % 987,7 hPa 0,0 mm 1,6 km/h (1 Bft) SO 135 0 min 0 UV-I 0 W/m 6,4 km/h (2 Bft)
26.02.2010 05:10 7,1 C 89 % 987,7 hPa 0,0 mm 1,6 km/h (1 Bft) S-SO 157 0 min 0 UV-I 0 W/m 4,8 km/h (1 Bft)
26.02.2010 05:20 7,1 C 89 % 987,8 hPa 0,0 mm 0,0 km/h (0 Bft) S-SO 157 0 min 0 UV-I 0 W/m 3,2 km/h (1 Bft)
26.02.2010 05:30 7,1 C 89 % 987,7 hPa 0,0 mm 0,0 km/h (0 Bft) S-SO 157 0 min 0 UV-I 0 W/m 1,6 km/h (1 Bft)
26.02.2010 05:40 7,1 C 89 % 987,6 hPa 0,0 mm 0,0 km/h (0 Bft) SO 135 0 min 0 UV-I 0 W/m 3,2 km/h (1 Bft)
26.02.2010 05:50 7,1 C 89 % 987,5 hPa 0,0 mm 0,0 km/h (0 Bft) SO 135 0 min 0 UV-I 0 W/m 1,6 km/h (1 Bft)
26.02.2010 06:00 7,1 C 89 % 987,4 hPa 0,0 mm 0,0 km/h (0 Bft) SO 135 0 min 0 UV-I 0 W/m 1,6 km/h (1 Bft)
26.02.2010 06:10 7,0 C 89 % 987,4 hPa 0,0 mm 1,6 km/h (1 Bft) SO 135 0 min 0 UV-I 0 W/m 4,8 km/h (1 Bft)
26.02.2010 06:20 6,9 C 89 % 987,3 hPa 0,0 mm 3,2 km/h (1 Bft) O-SO 112 0 min 0 UV-I 0 W/m 6,4 km/h (2 Bft)
26.02.2010 06:30 6,9 C 90 % 987,3 hPa 0,0 mm 3,2 km/h (1 Bft) O-SO 112 0 min 0 UV-I 0 W/m 8,0 km/h (2 Bft)
26.02.2010 06:40 7,0 C 90 % 987,3 hPa 0,0 mm 3,2 km/h (1 Bft) O-SO 112 0 min 0 UV-I 0 W/m 6,4 km/h (2 Bft)
26.02.2010 06:50 7,1 C 90 % 987,1 hPa 0,0 mm 3,2 km/h (1 Bft) O 90 0 min 0 UV-I 0 W/m 8,0 km/h (2 Bft)
26.02.2010 07:00 7,2 C 90 % 987,3 hPa 0,0 mm 1,6 km/h (1 Bft) O-SO 112 0 min 0 UV-I 0 W/m 4,8 km/h (1 Bft)
26.02.2010 07:10 7,2 C 90 % 987,4 hPa 0,0 mm 1,6 km/h (1 Bft) O-SO 112 0 min 0 UV-I 0 W/m 6,4 km/h (2 Bft)
26.02.2010 07:20 7,2 C 90 % 987,5 hPa 0,0 mm 1,6 km/h (1 Bft) O-SO 112 0 min 0 UV-I 0 W/m 8,0 km/h (2 Bft)
26.02.2010 07:30 7,3 C 90 % 987,6 hPa 0,0 mm 1,6 km/h (1 Bft) O-SO 112 0 min 0 UV-I 0 W/m 6,4 km/h (2 Bft)
26.02.2010 07:40 7,4 C 90 % 987,5 hPa 0,0 mm 1,6 km/h (1 Bft) SO 135 0 min 0 UV-I 0 W/m 6,4 km/h (2 Bft)
26.02.2010 07:50 7,4 C 90 % 987,6 hPa 0,0 mm 0,0 km/h (0 Bft) O-SO 112 0 min 0 UV-I 9 W/m 3,2 km/h (1 Bft)
26.02.2010 08:00 7,4 C 90 % 987,7 hPa 0,3 mm 0,0 km/h (0 Bft) O 90 0 min 0 UV-I 9 W/m 4,8 km/h (1 Bft)
26.02.2010 08:10 7,5 C 90 % 987,5 hPa 0,0 mm 1,6 km/h (1 Bft) O-SO 112 0 min 0 UV-I 14 W/m 8,0 km/h (2 Bft)
26.02.2010 08:20 7,5 C 91 % 987,5 hPa 0,3 mm 1,6 km/h (1 Bft) SO 135 0 min 0 UV-I 25 W/m 4,8 km/h (1 Bft)
26.02.2010 08:30 7,6 C 91 % 987,5 hPa 0,0 mm 1,6 km/h (1 Bft) O-SO 112 0 min 0 UV-I 28 W/m 8,0 km/h (2 Bft)
26.02.2010 08:40 7,6 C 91 % 987,6 hPa 0,0 mm 1,6 km/h (1 Bft) O-SO 112 0 min 0 UV-I 21 W/m 8,0 km/h (2 Bft)
26.02.2010 08:50 7,6 C 91 % 987,7 hPa 0,0 mm 1,6 km/h (1 Bft) SO 135 0 min 0 UV-I 23 W/m 6,4 km/h (2 Bft)
26.02.2010 09:00 7,7 C 91 % 987,6 hPa 0,0 mm 0,0 km/h (0 Bft) S 180 0 min 0 UV-I 39 W/m 4,8 km/h (1 Bft)
26.02.2010 09:10 7,7 C 91 % 987,6 hPa 0,0 mm 0,0 km/h (0 Bft) S-SO 157 0 min 0 UV-I 62 W/m 4,8 km/h (1 Bft)
26.02.2010 09:20 7,7 C 91 % 987,6 hPa 0,0 mm 1,6 km/h (1 Bft) S-SO 157 10 min 1 UV-I 156 W/m 6,4 km/h (2 Bft)
26.02.2010 09:30 8,3 C 90 % 987,4 hPa 0,0 mm 1,6 km/h (1 Bft) S-SO 157 10 min 1 UV-I 341 W/m 6,4 km/h (2 Bft)
26.02.2010 09:40 9,2 C 88 % 987,4 hPa 0,0 mm 1,6 km/h (1 Bft) O-SO 112 10 min 1 UV-I 276 W/m 6,4 km/h (2 Bft)
26.02.2010 09:50 9,4 C 86 % 987,5 hPa 0,0 mm 1,6 km/h (1 Bft) SO 135 10 min 1 UV-I 454 W/m 8,0 km/h (2 Bft)
26.02.2010 10:00 10,0 C 82 % 987,5 hPa 0,0 mm 3,2 km/h (1 Bft) SO 135 10 min 1 UV-I 214 W/m 12,9 km/h (3 Bft)
26.02.2010 10:10 10,1 C 81 % 987,5 hPa 0,0 mm 1,6 km/h (1 Bft) SW 225 0 min 1 UV-I 139 W/m 8,0 km/h (2 Bft)
26.02.2010 10:20 10,2 C 80 % 987,5 hPa 0,0 mm 3,2 km/h (1 Bft) S 180 10 min 1 UV-I 225 W/m 11,3 km/h (2 Bft)
26.02.2010 10:30 10,6 C 77 % 987,6 hPa 0,0 mm 4,8 km/h (1 Bft) S-SW 202 10 min 1 UV-I 341 W/m 14,5 km/h (3 Bft)
26.02.2010 10:40 10,8 C 75 % 987,6 hPa 0,0 mm 6,4 km/h (2 Bft) SW 225 0 min 1 UV-I 204 W/m 16,1 km/h (3 Bft)
26.02.2010 10:50 10,8 C 74 % 987,5 hPa 0,0 mm 8,0 km/h (2 Bft) SW 225 0 min 1 UV-I 214 W/m 20,9 km/h (4 Bft)
26.02.2010 11:00 10,8 C 74 % 987,6 hPa 0,0 mm 6,4 km/h (2 Bft) S-SW 202 10 min 1 UV-I 295 W/m 20,9 km/h (4 Bft)
26.02.2010 11:10 11,2 C 72 % 987,6 hPa 0,0 mm 6,4 km/h (2 Bft) S-SW 202 10 min 2 UV-I 733 W/m 19,3 km/h (3 Bft)
26.02.2010 11:20 11,8 C 71 % 987,7 hPa 0,0 mm 4,8 km/h (1 Bft) S-SW 202 0 min 2 UV-I 246 W/m 17,7 km/h (3 Bft)
26.02.2010 11:30 11,7 C 70 % 987,8 hPa 0,0 mm 6,4 km/h (2 Bft) SW 225 10 min 2 UV-I 487 W/m 19,3 km/h (3 Bft)
26.02.2010 11:40 11,6 C 69 % 987,7 hPa 0,0 mm 6,4 km/h (2 Bft) SW 225 10 min 1 UV-I 265 W/m 20,9 km/h (4 Bft)
26.02.2010 11:50 11,6 C 68 % 987,7 hPa 0,0 mm 8,0 km/h (2 Bft) SW 225 0 min 2 UV-I 243 W/m 32,2 km/h (5 Bft)
26.02.2010 12:00 11,7 C 67 % 987,5 hPa 0,0 mm 8,0 km/h (2 Bft) SW 225 10 min 2 UV-I 422 W/m 24,1 km/h (4 Bft)
26.02.2010 12:10 11,6 C 67 % 987,5 hPa 0,0 mm 6,4 km/h (2 Bft) S-SW 202 10 min 2 UV-I 295 W/m 30,6 km/h (5 Bft)
26.02.2010 12:20 11,7 C 68 % 987,6 hPa 0,0 mm 4,8 km/h (1 Bft) SW 225 0 min 1 UV-I 264 W/m 16,1 km/h (3 Bft)
26.02.2010 12:30 11,6 C 68 % 987,6 hPa 0,0 mm 4,8 km/h (1 Bft) S-SW 202 0 min 1 UV-I 213 W/m 17,7 km/h (3 Bft)
26.02.2010 12:40 11,4 C 68 % 987,6 hPa 0,0 mm 6,4 km/h (2 Bft) SW 225 0 min 1 UV-I 250 W/m 22,5 km/h (4 Bft)
26.02.2010 12:50 11,4 C 68 % 987,6 hPa 0,0 mm 3,2 km/h (1 Bft) W-SW 247 10 min 2 UV-I 330 W/m 14,5 km/h (3 Bft)
26.02.2010 13:00 11,7 C 67 % 987,5 hPa 0,0 mm 6,4 km/h (2 Bft) S-SW 202 10 min 2 UV-I 306 W/m 22,5 km/h (4 Bft)
26.02.2010 13:10 11,4 C 68 % 987,6 hPa 0,0 mm 4,8 km/h (1 Bft) SW 225 0 min 1 UV-I 86 W/m 22,5 km/h (4 Bft)
26.02.2010 13:20 11,1 C 69 % 987,6 hPa 0,0 mm 4,8 km/h (1 Bft) S-SW 202 0 min 1 UV-I 77 W/m 20,9 km/h (4 Bft)
26.02.2010 13:30 11,0 C 68 % 987,6 hPa 0,0 mm 9,7 km/h (2 Bft) S-SW 202 0 min 1 UV-I 183 W/m 24,1 km/h (4 Bft)
26.02.2010 13:40 11,0 C 68 % 987,7 hPa 0,0 mm 8,0 km/h (2 Bft) SW 225 0 min 1 UV-I 186 W/m 20,9 km/h (4 Bft)
26.02.2010 13:50 11,2 C 68 % 987,7 hPa 0,0 mm 8,0 km/h (2 Bft) S-SW 202 0 min 1 UV-I 183 W/m 20,9 km/h (4 Bft)
26.02.2010 14:00 11,2 C 68 % 987,7 hPa 0,0 mm 9,7 km/h (2 Bft) S-SW 202 0 min 1 UV-I 197 W/m 32,2 km/h (5 Bft)
26.02.2010 14:10 11,2 C 67 % 987,7 hPa 0,0 mm 8,0 km/h (2 Bft) SW 225 10 min 1 UV-I 251 W/m 22,5 km/h (4 Bft)
26.02.2010 14:20 11,3 C 67 % 987,8 hPa 0,0 mm 8,0 km/h (2 Bft) SW 225 0 min 1 UV-I 241 W/m 25,7 km/h (4 Bft)
26.02.2010 14:30 11,3 C 66 % 987,9 hPa 0,0 mm 9,7 km/h (2 Bft) SW 225 10 min 1 UV-I 320 W/m 29,0 km/h (5 Bft)
26.02.2010 14:40 11,2 C 67 % 987,9 hPa 0,0 mm 9,7 km/h (2 Bft) W-SW 247 0 min 1 UV-I 174 W/m 25,7 km/h (4 Bft)
26.02.2010 14:50 11,2 C 67 % 988,1 hPa 0,0 mm 8,0 km/h (2 Bft) SW 225 0 min 1 UV-I 153 W/m 22,5 km/h (4 Bft)
26.02.2010 15:00 11,1 C 68 % 988,1 hPa 0,0 mm 6,4 km/h (2 Bft) SW 225 0 min 1 UV-I 127 W/m 20,9 km/h (4 Bft)
26.02.2010 15:10 11,0 C 68 % 988,1 hPa 0,0 mm 6,4 km/h (2 Bft) S-SW 202 0 min 1 UV-I 127 W/m 25,7 km/h (4 Bft)
26.02.2010 15:20 10,9 C 68 % 988,2 hPa 0,0 mm 8,0 km/h (2 Bft) SW 225 0 min 1 UV-I 98 W/m 24,1 km/h (4 Bft)
26.02.2010 15:30 10,9 C 68 % 988,4 hPa 0,0 mm 4,8 km/h (1 Bft) SW 225 0 min 1 UV-I 90 W/m 16,1 km/h (3 Bft)
26.02.2010 15:40 10,9 C 68 % 988,5 hPa 0,0 mm 8,0 km/h (2 Bft) SW 225 0 min 0 UV-I 72 W/m 20,9 km/h (4 Bft)
26.02.2010 15:50 10,8 C 68 % 988,7 hPa 0,0 mm 9,7 km/h (2 Bft) W-SW 247 0 min 0 UV-I 58 W/m 25,7 km/h (4 Bft)
26.02.2010 16:00 10,6 C 70 % 988,8 hPa 0,0 mm 10,3 km/h (2 Bft) SW 215 0 min 0 UV-I 14 W/m 24,1 km/h (4 Bft)
26.02.2010 16:10 10,3 C 74 % 989,2 hPa 0,0 mm 8,0 km/h (2 Bft) W-SW 247 0 min 0 UV-I 26 W/m 20,9 km/h (4 Bft)
26.02.2010 16:20 9,8 C 78 % 989,6 hPa 0,5 mm 12,9 km/h (3 Bft) W 270 0 min 0 UV-I 21 W/m 24,1 km/h (4 Bft)
26.02.2010 16:30 9,1 C 81 % 990,0 hPa 0,5 mm 14,5 km/h (3 Bft) W 270 0 min 0 UV-I 14 W/m 33,8 km/h (5 Bft)
26.02.2010 16:40 8,3 C 83 % 990,3 hPa 0,3 mm 14,5 km/h (3 Bft) W-SW 247 0 min 0 UV-I 9 W/m 37,0 km/h (5 Bft)
26.02.2010 16:50 7,8 C 84 % 990,6 hPa 0,5 mm 12,9 km/h (3 Bft) W-SW 247 0 min 0 UV-I 12 W/m 33,8 km/h (5 Bft)
26.02.2010 17:00 7,5 C 85 % 991,1 hPa 0,3 mm 12,9 km/h (3 Bft) W-SW 247 0 min 0 UV-I 7 W/m 37,0 km/h (5 Bft)
26.02.2010 17:10 7,3 C 86 % 991,3 hPa 0,3 mm 9,7 km/h (2 Bft) W 270 0 min 0 UV-I 9 W/m 27,4 km/h (4 Bft)
26.02.2010 17:20 7,1 C 86 % 991,5 hPa 0,3 mm 9,7 km/h (2 Bft) W 270 0 min 0 UV-I 7 W/m 25,7 km/h (4 Bft)
26.02.2010 17:30 6,9 C 86 % 991,8 hPa 0,3 mm 6,4 km/h (2 Bft) W 270 0 min 0 UV-I 0 W/m 20,9 km/h (4 Bft)
26.02.2010 17:40 6,8 C 87 % 992,0 hPa 0,3 mm 4,8 km/h (1 Bft) W-SW 247 0 min 0 UV-I 0 W/m 16,1 km/h (3 Bft)
26.02.2010 17:50 6,8 C 87 % 992,4 hPa 0,3 mm 8,0 km/h (2 Bft) W 270 0 min 0 UV-I 0 W/m 22,5 km/h (4 Bft)
26.02.2010 18:00 6,6 C 88 % 992,6 hPa 0,3 mm 9,7 km/h (2 Bft) W-SW 247 0 min 0 UV-I 0 W/m 24,1 km/h (4 Bft)
26.02.2010 18:10 6,4 C 88 % 992,9 hPa 0,0 mm 8,0 km/h (2 Bft) W-SW 247 0 min 0 UV-I 0 W/m 22,5 km/h (4 Bft)
26.02.2010 18:20 6,3 C 88 % 993,1 hPa 0,3 mm 6,4 km/h (2 Bft) W-SW 247 0 min 0 UV-I 0 W/m 20,9 km/h (4 Bft)
26.02.2010 18:30 6,2 C 88 % 993,5 hPa 0,3 mm 8,0 km/h (2 Bft) W-SW 247 0 min 0 UV-I 0 W/m 20,9 km/h (4 Bft)
26.02.2010 18:40 6,1 C 88 % 993,7 hPa 1,0 mm 12,9 km/h (3 Bft) W-SW 247 0 min 0 UV-I 0 W/m 30,6 km/h (5 Bft)
26.02.2010 18:50 5,9 C 88 % 994,0 hPa 0,3 mm 14,5 km/h (3 Bft) W-SW 247 0 min 0 UV-I 0 W/m 32,2 km/h (5 Bft)
26.02.2010 19:00 5,7 C 88 % 994,2 hPa 0,0 mm 11,3 km/h (2 Bft) W-SW 247 0 min 0 UV-I 0 W/m 27,4 km/h (4 Bft)
26.02.2010 19:10 5,6 C 89 % 994,4 hPa 0,0 mm 8,0 km/h (2 Bft) W-SW 247 0 min 0 UV-I 0 W/m 20,9 km/h (4 Bft)
26.02.2010 19:20 5,6 C 89 % 994,5 hPa 0,0 mm 8,0 km/h (2 Bft) W-SW 247 0 min 0 UV-I 0 W/m 24,1 km/h (4 Bft)
26.02.2010 19:30 5,5 C 89 % 994,6 hPa 0,0 mm 8,0 km/h (2 Bft) W-SW 247 0 min 0 UV-I 0 W/m 19,3 km/h (3 Bft)
26.02.2010 19:40 5,5 C 89 % 994,6 hPa 0,0 mm 4,8 km/h (1 Bft) W-SW 247 0 min 0 UV-I 0 W/m 11,3 km/h (2 Bft)
26.02.2010 19:50 5,5 C 89 % 994,7 hPa 0,0 mm 4,8 km/h (1 Bft) W-SW 247 0 min 0 UV-I 0 W/m 16,1 km/h (3 Bft)
26.02.2010 20:00 5,4 C 89 % 994,9 hPa 0,0 mm 6,4 km/h (2 Bft) W-SW 247 0 min 0 UV-I 0 W/m 24,1 km/h (4 Bft)
26.02.2010 20:10 5,4 C 88 % 995,0 hPa 0,0 mm 11,3 km/h (2 Bft) W-SW 247 0 min 0 UV-I 0 W/m 25,7 km/h (4 Bft)
26.02.2010 20:20 5,4 C 87 % 995,2 hPa 0,0 mm 9,7 km/h (2 Bft) W-SW 247 0 min 0 UV-I 0 W/m 20,9 km/h (4 Bft)
26.02.2010 20:30 5,5 C 86 % 995,4 hPa 0,0 mm 8,0 km/h (2 Bft) W-SW 247 0 min 0 UV-I 0 W/m 22,5 km/h (4 Bft)
26.02.2010 20:40 5,6 C 85 % 995,7 hPa 0,0 mm 11,3 km/h (2 Bft) W-SW 247 0 min 0 UV-I 0 W/m 32,2 km/h (5 Bft)
26.02.2010 20:50 5,4 C 82 % 995,9 hPa 0,0 mm 12,9 km/h (3 Bft) W-SW 247 0 min 0 UV-I 0 W/m 27,4 km/h (4 Bft)
26.02.2010 21:00 5,3 C 81 % 996,2 hPa 0,0 mm 6,4 km/h (2 Bft) W-SW 247 0 min 0 UV-I 0 W/m 20,9 km/h (4 Bft)
26.02.2010 21:10 5,2 C 82 % 996,3 hPa 0,0 mm 8,0 km/h (2 Bft) W-SW 247 0 min 0 UV-I 0 W/m 24,1 km/h (4 Bft)
26.02.2010 21:20 5,2 C 81 % 996,4 hPa 0,0 mm 6,4 km/h (2 Bft) W-SW 247 0 min 0 UV-I 0 W/m 20,9 km/h (4 Bft)
26.02.2010 21:30 5,2 C 81 % 996,5 hPa 0,0 mm 6,4 km/h (2 Bft) W-SW 247 0 min 0 UV-I 0 W/m 17,7 km/h (3 Bft)
26.02.2010 21:40 5,2 C 81 % 996,7 hPa 0,0 mm 4,8 km/h (1 Bft) W-SW 247 0 min 0 UV-I 0 W/m 14,5 km/h (3 Bft)
26.02.2010 21:50 5,3 C 81 % 996,7 hPa 0,0 mm 4,8 km/h (1 Bft) SW 225 0 min 0 UV-I 0 W/m 12,9 km/h (3 Bft)
26.02.2010 22:00 5,3 C 81 % 996,9 hPa 0,0 mm 4,8 km/h (1 Bft) W-SW 247 0 min 0 UV-I 0 W/m 12,9 km/h (3 Bft)
26.02.2010 22:10 5,3 C 80 % 997,2 hPa 0,0 mm 11,3 km/h (2 Bft) SW 225 0 min 0 UV-I 0 W/m 41,8 km/h (6 Bft)
26.02.2010 22:20 5,3 C 79 % 997,4 hPa 0,0 mm 12,9 km/h (3 Bft) W-SW 247 0 min 0 UV-I 0 W/m 35,4 km/h (5 Bft)
26.02.2010 22:30 5,2 C 78 % 997,6 hPa 0,0 mm 11,3 km/h (2 Bft) W-SW 247 0 min 0 UV-I 0 W/m 24,1 km/h (4 Bft)
26.02.2010 22:40 5,2 C 78 % 997,7 hPa 0,0 mm 6,4 km/h (2 Bft) S-SW 202 0 min 0 UV-I 0 W/m 20,9 km/h (4 Bft)
26.02.2010 22:50 5,1 C 79 % 997,9 hPa 0,0 mm 6,4 km/h (2 Bft) SW 225 0 min 0 UV-I 0 W/m 19,3 km/h (3 Bft)
26.02.2010 23:00 4,9 C 80 % 997,8 hPa 0,0 mm 8,0 km/h (2 Bft) W-SW 247 0 min 0 UV-I 0 W/m 19,3 km/h (3 Bft)
26.02.2010 23:10 4,8 C 81 % 997,7 hPa 0,0 mm 6,4 km/h (2 Bft) W-SW 247 0 min 0 UV-I 0 W/m 19,3 km/h (3 Bft)
26.02.2010 23:20 4,8 C 82 % 997,9 hPa 0,0 mm 4,8 km/h (1 Bft) SW 225 0 min 0 UV-I 0 W/m 17,7 km/h (3 Bft)
26.02.2010 23:30 4,7 C 83 % 998,1 hPa 0,0 mm 6,4 km/h (2 Bft) W-SW 247 0 min 0 UV-I 0 W/m 24,1 km/h (4 Bft)
26.02.2010 23:40 4,7 C 83 % 998,1 hPa 0,0 mm 6,4 km/h (2 Bft) W-SW 247 0 min 0 UV-I 0 W/m 19,3 km/h (3 Bft)
26.02.2010 23:50 4,7 C 83 % 998,2 hPa 0,3 mm 6,4 km/h (2 Bft) W-SW 247 0 min 0 UV-I 0 W/m 11,3 km/h (2 Bft)
_ Min-Zeit 23:20 14:30 06:50 - 05:20 - - - - - 05:30
Minimum _ 4,7 C 66 % 987,1 hPa - 0,0 km/h (0 Bft) - - - - - 1,6 km/h (1 Bft)
_ Max-Zeit 11:20 08:20 23:50 18:40 16:30 - - 09:20 12:00 11:10 22:10
Maximum _ 11,9 C 91 % 998,2 hPa 1,0 mm 14,5 km/h
W (3 Bft)
- - 10 min 2 UV-I 733 W/m 41,8 km/h
W-SW (6 Bft)
Durchschnitt _ 7,9 C 82 % 990,2 hPa #6,1 mm 5,3 km/h (1 Bft) W-SW - #2:50 h 1 UV-I 170 W/m 16,4 km/h (3 Bft)